Weather Roundup
Issued by NWS Chicago, IL

Home | Current Version | Previous Version | Text Only | Print | Product List | Glossary Off
Versions: 1 2 3 4 5 6 7 8 9 10 11 12 13 14 15 16 17 18 19 20 21 22 23 24 25 26 27 28 29 30 31 32 33 34 35 36 37 38 39 40 41 42 43 44 45 46 47 48 49 50

000
NZUS59 KLOT 181506
HRRLOT

CHICAGO AREA WEATHER ROUNDUP
NATIONAL WEATHER SERVICE CHICAGO/ROMEOVILLE IL
1000 AM CDT FRI APR 18 2014

NOTE: "FAIR" INDICATES FEW OR NO CLOUDS BELOW 12,000 FEET WITH NO
SIGNIFICANT WEATHER AND/OR OBSTRUCTIONS TO VISIBILITY.

* THESE STATIONS ARE NOT UNDER NWS QUALITY CONTROL. THEY ALSO MAY NOT
  REPORT WEATHER SUCH AS PRECIPITATION OR FOG.

ILZ005-006-012>014-019>023-181600-
NORTHEAST ILLINOIS

CITY           SKY/WX    TMP DP  RH WIND       PRES   REMARKS
OHARE          MOSUNNY   48  34  58 NE12      30.33S
MIDWAY         MOSUNNY   48  36  63 N8        30.33S
AURORA         SUNNY     49  38  65 NE8       30.33S HAZE
LANSING*       SUNNY     46  37  70 N10       30.33R
WAUKEGAN       SUNNY     44  34  67 NE9       30.34R
DUPAGE AIRPORT SUNNY     50  37  61 N5        30.32S
WHEELING       SUNNY     47  36  65 NE9       30.35R
LEWIS AIRPORT* SUNNY     51  37  60 E5        30.32S
NORTHERLY IS     N/A     43  35  73 N14         N/A
$$

WIZ051-052-058>065-066-070>072-181600-
SOUTHEAST WISCONSIN

CITY           SKY/WX    TMP DP  RH WIND       PRES   REMARKS
MILWAUKEE      PTSUNNY   41  32  70 N13       30.38R
KENOSHA*       PTSUNNY   44  34  67 NE13      30.35R
RACINE*        PTSUNNY   41  31  67 N15G22    30.37S
WAUKESHA       PTSUNNY   41  32  70 N3        30.36R
WEST BEND      CLOUDY    39  30  70 N3        30.36R
$$

INZ001>003-010>013-019-020-181600-
NORTHWEST INDIANA

CITY           SKY/WX    TMP DP  RH WIND       PRES   REMARKS
GARY*          MOSUNNY   46  36  66 N14       30.35R
MICHIGAN CITY* NOT AVBL
RENSSELAER*    NOT AVBL
VALPARAISO     SUNNY     52  39  61 N6        30.31R
$$

LMZ740>746-181600-
SOUTHERN LAKE MICHIGAN

STATION/POSITION TIME  SKY/WX   TEMP WIND        PRES    VSBY
                                AIR  DIR/SP/G
                 (UTC)          (F)  (DEG/KT/KT) (MB)    (MI)
HARRISON CRIB    1500            39  350/ 16/ 19   N/A
BURNHAM HARBOR   1500            42  340/ 10/ 15   N/A
CALUMET HARBOR   1500            42  340/ 12/ 18 1028.0R
BURNS HARBOR     NOT AVBL
MICHIGAN CITY    1500            39  280/  8/  9   N/A
$$

ABBREVIATIONS USED IN REMARKS
   TC - TEMPERATURE IN CELSIUS
  WCI - WIND CHILL INDEX
   HX - HEAT INDEX
  VSB - VISIBILITY
$$


USA.gov is the U.S. government's official web portal to all federal, state and local government web resources and services.